DateTimeUTC,F1_A11,F1_S11,BsB_S11,BsG_S11,BsR_S11,BbsB_S11,BbsG_S11,BbsR_S11,BaB_A11,BaG_A11,BaR_A11,Tu_S11,T_S11,Uu_S11,U_S11,P_S11,T1_A11
2021-10-24T21:00:00Z,00000200,21000000,,,,,,,-000.02,-000.16,-000.25,20.2,27.1,,00.0,0623.7,31.2
2021-10-24T21:01:00Z,00000200,21000000,,,,,,,0000.12,-000.20,-000.39,20.2,27.1,,00.0,0623.6,31.2
2021-10-24T21:02:00Z,00000200,21000000,,,,,,,0000.39,0000.40,0000.57,20.2,27.1,,00.0,0623.6,31.2
2021-10-24T21:03:00Z,00000200,61000000,,,,,,,0000.27,0000.02,0000.41,20.2,27.1,,00.0,0623.6,31.2
2021-10-24T21:04:00Z,00000200,41000000,-000.16,0000.21,0000.35,-000.33,0000.18,0000.12,0000.26,-000.03,0000.05,20.1,26.8,,00.0,0624.4,31.2
2021-10-24T21:05:00Z,00000200,01000000,-000.02,-000.13,0000.11,0000.35,0000.01,0000.09,-000.12,0000.06,0000.00,20.1,26.7,,00.0,0624.4,31.2
2021-10-24T21:06:00Z,00000200,01000000,-000.02,0000.27,0000.53,0000.17,0000.34,-000.13,-000.14,0000.58,0000.29,20.1,26.7,,00.0,0624.4,31.2
2021-10-24T21:07:00Z,00000200,01000000,0000.13,-000.18,0000.16,0000.52,-000.25,0000.20,0000.33,-000.29,-000.03,20.2,26.7,,00.0,0624.4,31.2
2021-10-24T21:08:00Z,00000200,01000000,0001.21,-000.31,0000.43,-000.05,0000.20,0000.24,0000.07,0000.55,0000.32,20.3,26.8,,00.0,0624.4,31.2
2021-10-24T21:09:00Z,00000200,01000000,0000.71,-000.02,0000.02,0000.41,0000.14,0000.17,0000.34,0000.30,0000.16,20.3,26.8,,00.0,0624.4,31.3
2021-10-24T21:10:00Z,00000200,01000000,0000.57,0000.06,0000.25,0000.64,0000.07,0000.13,0000.19,0000.59,0000.23,20.4,26.8,,00.0,0624.5,31.3
2021-10-24T21:11:00Z,00000200,01000000,0000.75,-000.11,0000.05,-000.08,-000.23,-000.03,0000.68,-000.02,0000.66,20.5,26.9,,00.0,0624.5,31.2
2021-10-24T21:12:00Z,00000200,01000000,0000.22,0000.25,0000.25,0000.22,0000.16,-000.14,0000.23,0000.17,-000.06,20.5,26.9,,00.0,0624.6,31.3
2021-10-24T21:13:00Z,00000200,01000000,0000.53,0000.06,-000.17,0000.70,0000.08,0000.06,0000.03,0000.32,0000.37,20.6,26.9,,00.0,0624.6,31.3
2021-10-24T21:14:00Z,00000200,01000000,0000.87,0000.14,0000.04,-000.65,0000.15,0000.08,0000.65,0000.60,0000.54,20.6,27.0,,00.0,0624.6,31.3
2021-10-24T21:15:00Z,00000200,01000000,0000.93,-000.11,0000.35,0000.61,0000.31,0000.09,0000.63,0000.61,0000.58,20.7,27.0,,00.0,0624.7,31.3
2021-10-24T21:16:00Z,00000200,01000000,0000.17,0000.12,0000.32,-000.27,-000.26,0000.26,-000.60,-000.55,-000.45,20.6,27.0,,00.0,0624.8,31.3
2021-10-24T21:17:00Z,00000200,01000000,0000.15,-000.13,0000.16,0000.22,0000.37,0000.21,0000.48,0000.53,0000.29,20.5,26.9,,00.0,0624.6,31.2
2021-10-24T21:18:00Z,00000200,01000000,0000.63,0000.49,0000.45,0000.05,0000.15,0000.33,0000.50,0000.07,0000.79,20.5,26.9,,00.0,0624.8,31.2
2021-10-24T21:19:00Z,00000200,01000000,0000.29,0000.17,0000.25,-000.17,0000.08,0000.32,0000.37,0001.00,0000.35,20.4,26.9,,00.0,0624.7,31.2
2021-10-24T21:20:00Z,00000200,01000000,0000.63,-000.03,0000.04,0000.49,0000.19,-000.31,0000.30,0000.12,0000.21,20.4,26.9,,00.0,0624.8,31.2
2021-10-24T21:21:00Z,00000200,01000000,0001.26,-000.14,0000.39,0000.22,-000.32,-000.03,0000.08,-000.21,-000.05,20.4,26.8,,00.0,0624.7,31.2
2021-10-24T21:22:00Z,00000200,01000000,0001.18,0000.17,0000.58,0000.31,-000.11,0000.12,0000.28,0000.10,0000.34,20.5,26.9,,00.0,0624.7,31.2
2021-10-24T21:23:00Z,00000200,01000000,0000.25,0000.39,0000.54,-000.35,-000.02,0000.18,0000.39,0000.61,0000.61,20.5,26.9,,00.0,0624.8,31.3
2021-10-24T21:24:00Z,00000200,01000000,0001.10,-000.45,0000.21,-000.32,0000.03,0000.38,0000.60,0000.40,0000.51,20.6,26.9,,00.0,0624.8,31.3
2021-10-24T21:25:00Z,00000200,01000000,0000.79,-000.15,-000.04,0000.43,-000.18,0000.19,0000.29,0000.40,0000.29,20.7,27.0,,00.0,0624.7,31.3
2021-10-24T21:26:00Z,00000200,01000000,0000.38,-000.08,0000.04,0000.58,0000.20,0000.10,0000.19,0000.47,-000.23,20.7,27.0,,00.0,0624.8,31.3
2021-10-24T21:27:00Z,00000200,01000000,0000.56,0000.16,0000.56,0000.43,-000.05,0000.57,0000.01,0000.13,0000.57,20.8,27.1,,00.0,0624.8,31.3
2021-10-24T21:28:00Z,00000200,01000000,0000.14,0000.04,0000.14,0000.01,-000.19,0000.11,0000.71,0000.62,-000.01,20.8,27.1,,00.0,0624.6,31.3
2021-10-24T21:29:00Z,00000200,01000000,0000.39,0000.07,-000.01,-000.23,0000.06,0000.56,0000.33,0000.63,0000.45,20.8,27.1,,00.0,0624.6,31.3
2021-10-24T21:30:00Z,00000200,01000000,0000.49,-000.26,0000.15,0000.23,0000.19,0000.06,-000.08,-000.23,0000.15,20.7,27.1,,00.0,0624.7,31.3
2021-10-24T21:31:00Z,00000200,01000000,0000.46,-000.25,0000.16,0000.26,0000.17,0000.37,-000.33,-000.49,0000.31,20.7,27.0,,00.0,0624.7,31.2
2021-10-24T21:32:00Z,00000200,01000000,0000.51,0000.32,0000.20,0000.38,0000.36,0000.15,0000.85,0000.36,0000.23,20.6,27.0,,00.0,0624.8,31.2
2021-10-24T21:33:00Z,00000200,01000000,-000.39,-000.34,0000.04,0000.48,0000.51,0000.23,0000.03,0000.62,0000.40,20.5,27.0,,00.0,0624.7,31.2
2021-10-24T21:34:00Z,00000200,01000000,0000.65,0000.09,0000.62,-000.26,0000.31,0000.04,0000.36,0000.16,0000.18,20.5,26.9,,00.0,0624.8,31.2
2021-10-24T21:35:00Z,00000200,01000000,0000.40,0000.10,0000.25,0000.38,0000.05,0000.29,0001.25,0001.43,0001.41,20.4,26.9,,00.0,0625.0,31.2
2021-10-24T21:36:00Z,00000200,01000000,0000.67,-000.20,0000.09,0000.51,0000.09,0000.04,-000.04,-000.11,-000.71,20.4,26.9,,00.0,0624.7,31.2
2021-10-24T21:37:00Z,00000200,01000000,0000.33,-000.21,-000.04,0000.05,0000.09,0000.07,-000.20,-000.59,-000.20,20.5,26.9,,00.0,0624.8,31.3
2021-10-24T21:38:00Z,00000200,01000000,-000.62,0000.09,0000.19,-000.56,0000.28,0000.22,0000.60,0000.56,0000.83,20.6,26.9,,00.0,0624.7,31.3
2021-10-24T21:39:00Z,00000200,01000000,0000.71,-000.29,0000.32,-000.26,0000.07,0000.15,0000.21,0000.39,0000.05,20.6,27.0,,00.0,0624.8,31.3
2021-10-24T21:40:00Z,00000200,01000000,0000.31,-000.04,0000.16,0000.06,0000.07,0000.29,-000.03,0000.28,0000.34,20.7,27.0,,00.0,0624.9,31.3
2021-10-24T21:41:00Z,00000200,01000000,-000.31,0000.13,0000.45,0000.53,-000.11,0000.06,-000.09,0000.04,0000.12,20.8,27.0,,00.0,0624.7,31.3
2021-10-24T21:42:00Z,00000200,01000000,-000.01,0000.08,0000.59,0000.03,0000.09,0000.09,0000.86,0000.73,0000.75,20.8,27.1,,00.0,0625.0,31.3
2021-10-24T21:43:00Z,00000200,01000000,0000.08,0000.20,0000.16,-000.25,0000.18,-000.07,0000.53,0000.29,0000.39,20.9,27.1,,00.0,0624.9,31.3
2021-10-24T21:44:00Z,00000200,01000000,0000.30,0000.11,0000.19,-000.07,-000.13,0000.14,0000.31,0000.51,0000.24,20.8,27.1,,00.0,0624.7,31.3
2021-10-24T21:45:00Z,00000200,01000000,0000.53,0000.25,0000.13,0000.07,-000.02,0000.13,0000.66,0000.84,0000.84,20.7,27.1,,00.0,0625.0,31.3
2021-10-24T21:46:00Z,00000200,01000000,0000.35,0000.03,0000.96,0000.14,-000.05,-000.02,0000.21,0000.20,0000.27,20.6,27.0,,00.0,0624.8,31.2
2021-10-24T21:47:00Z,00000200,01000000,-000.31,0000.20,0000.25,0000.13,-000.14,0000.31,0000.09,0000.06,-000.06,20.6,27.0,,00.0,0624.8,31.2
2021-10-24T21:48:00Z,00000200,01000000,0000.74,-000.10,0000.24,-000.04,0000.07,0000.58,0000.17,0000.03,0000.19,20.5,27.0,,00.0,0624.8,31.2
2021-10-24T21:49:00Z,00000200,01000000,0000.44,-000.33,0000.15,-000.23,0000.40,-000.01,0000.23,0000.26,0000.34,20.5,26.9,,00.0,0624.9,31.2
2021-10-24T21:50:00Z,00000200,01000000,-000.32,0000.15,0000.33,0000.04,-000.33,0000.38,0000.81,0000.83,0000.67,20.4,26.9,,00.0,0625.0,31.2
2021-10-24T21:51:00Z,00000200,01000000,0001.18,0000.08,0000.36,0000.00,-000.14,0000.02,0000.20,-000.00,0000.06,20.5,26.9,,00.0,0624.8,31.2
2021-10-24T21:52:00Z,00000200,01000000,0000.84,-000.18,-000.09,0000.36,-000.08,-000.03,-000.11,-000.16,0000.34,20.5,26.9,,00.0,0624.8,31.2
2021-10-24T21:53:00Z,00000200,01000000,0000.65,0000.35,0000.23,0000.44,0000.15,0000.08,0000.70,0000.75,0000.44,20.5,26.9,,00.0,0624.7,31.3
2021-10-24T21:54:00Z,00000200,01000000,-000.07,0000.07,0000.33,-000.07,0000.27,-000.19,0000.18,0000.28,0000.43,20.6,27.0,,00.0,0624.8,31.2
2021-10-24T21:55:00Z,00000200,01000000,0000.39,0000.11,-000.37,0000.07,0000.10,-000.44,-000.01,-000.09,-000.05,20.7,27.0,,00.0,0624.9,31.3
2021-10-24T21:56:00Z,00000200,01000000,-000.20,-000.01,-000.05,0000.25,0000.05,0000.12,0000.38,0000.49,-000.33,20.7,27.0,,00.0,0624.8,31.3
2021-10-24T21:57:00Z,00000200,41000000,,,,,,,0000.20,0000.36,0000.87,20.8,27.1,,00.0,0624.9,31.3
2021-10-24T21:58:00Z,00000200,61000000,,,,,,,0000.31,0000.36,0000.05,20.6,27.2,,00.0,0624.0,31.3
2021-10-24T21:59:00Z,00000200,21000000,,,,,,,-000.26,-000.23,-000.24,20.6,27.3,,00.0,0624.0,31.3
